Find Starlink 5512

NORAD ID: 57256 Int'l Des: 2023-094 Owner: SPXS Country: US Constellation: starlink operational
LEOCIRCULAR

实时位置

正在加载3D地球...

关于 Starlink 5512

正在加载描述...

即将过境

Passes for default location (London). Set your location on the main map for personalized predictions.

高度历史

Loading altitude history...

两行轨道根数

1 57256U 23094AQ 26104.67738204 .00001098 00000-0 49419-4 0 9992
2 57256 43.0014 176.6708 0001415 265.5165 94.5525 15.27574021152748
Epoch: Apr 14, 2026 • Age: 9 hours

当前状态

高度 485.9 km
速度 7.62 km/s
星下点 -16.14°S, 70.26°W
发射日期 Jul 7, 2023
运行时间 2.7 years
类型 internet

技术详情

分类 Payload
质量 305.00 kg
干质量 290.00 kg
总质量 305.00 kg
长度 0.20 m
直径 2.80 m
跨度 9.00 m
形状 Box + pan
制造商 SPXS
平台类型 Starlink
阶段状态 In Orbit
所有者/国家 SPXS/US

Most Searched